Hors Challenge

Le jogging de l'institut Saint-Louis à Namur (6.00 km)

dimanche 11 mars 2018

Vous pouvez trouver Le classement original sur : www.otopservices.be  
 
LE JOGGING DE L'INSTITUT SAINT-LOUIS - NAMUR
DISTANCE : 6.00 km
dimanche 11 mars 2018
 
Place dos NOM Catégorie Pl/cat temps temps/km Vitesse
01:00:00              
1 1312 SIMON HIERNAUX J 2000-2002 H 1 00:23:54 03:59 15.06
2 1391 ARTHUR JUDEX SENIOR H 1 00:25:21 04:14 14.20
3 1351 QUENTIN MAILLEUX J 2000-2002 H 2 00:26:12 04:22 13.74
4 1352 LUCA MOMMART J 2003-2005 H 1 00:26:35 04:26 13.54
5 1227 NICOLAS WARNON J 2003-2005 H 2 00:26:36 04:26 13.53
6 1357 SENNE COUPETTE J 2003-2005 H 3 00:26:39 04:26 13.51
7 1365 BORIS GERMIAT SENIOR H 2 00:28:15 04:43 12.74
8 1423 CHRISTOPHE DAVREUX VETERAN 1 1 00:29:26 04:54 12.23
9 1347 WILLIAM STEFFEN SENIOR H 3 00:29:52 04:59 12.05
10 1306 MERLIN LADRY J 2000-2002 H 3 00:29:59 05:00 12.01
11 1379 VICTOR CREUITS J 2003-2005 H 4 00:30:05 05:01 11.97
12 1230 NATHAN CARTON J 2003-2005 H 5 00:30:10 05:02 11.93
13 1300 MIA MVE OBIANG J 2003-2005 D 1 00:30:13 05:02 11.91
14 1378 GREGORY CHARPENTIER SENIOR H 4 00:30:23 05:04 11.85
15 1264 LOUIS HERPHELIN J 2003-2005 H 6 00:31:01 05:10 11.61
16 1261 ROMAIN VERHELLE J 2003-2005 H 7 00:31:22 05:14 11.48
17 1258 HUGO BAUTHIER J 2000-2002 H 4 00:31:46 05:18 11.33
18 1338 FELIX LIEGEOIS J 2006-2017 H 1 00:32:05 05:21 11.22
19 1273 MAXIME SEDRAN J 2003-2005 H 8 00:32:05 05:21 11.22
20 1250 ANTOINE COLIN J 2000-2002 H 5 00:32:07 05:21 11.21
21 1266 HUGO DESMET J 2000-2002 H 6 00:32:19 05:23 11.14
22 1424 CAROLINE SMETZ AINEE 1 1 00:33:04 05:31 10.89
23 1380 CHARLOTTE DEVISSCHER J 2003-2005 D 2 00:33:06 05:31 10.88
24 1234 CLAIRE LATHUY J 2000-2002 D 1 00:33:12 05:32 10.84
25 1318 THOMAS DENIS SENIOR H 5 00:33:23 05:34 10.78
26 1204 TANGUY SCHORKOPS J 2003-2005 H 9 00:33:28 05:35 10.76
27 1218 BENJAMIN TONNEAUX J 2003-2005 H 10 00:33:31 05:35 10.74
28 1268 QUENTIN CANON J 2003-2005 H 11 00:33:34 05:36 10.72
29 1401 NOAM CELLIERE J 2003-2005 D 3 00:33:46 05:38 10.66
30 1289 TIMOTHÉ LADRY J 2003-2005 H 12 00:34:03 05:41 10.57
31 1237 GAUTHIER SACRE J 2003-2005 H 13 00:34:19 05:43 10.49
32 1341 MAYA LIEGEOIS J 2003-2005 D 4 00:34:20 05:43 10.49
33 1339 LOU LIEGEOIS J 2006-2017 D 1 00:34:29 05:45 10.44
34 1249 PAUL DERNONCOURT J 2003-2005 H 14 00:34:29 05:45 10.44
35 1340 TOM LIEGEOIS VETERAN 1 2 00:34:31 05:45 10.43
36 1211 GERALDINE FRANCE AINEE 1 2 00:34:42 05:47 10.37
37 1260 JUSTIN FRENNET J 2003-2005 H 15 00:34:45 05:47 10.36
38 1288 ULYSSE LADRY J 2003-2005 H 16 00:34:48 05:48 10.34
39 1267 VALENTIN KUTZNER J 2003-2005 H 17 00:34:51 05:48 10.33
40 1274 PERRINE MOONS J 2003-2005 D 5 00:34:59 05:50 10.29
41 1371 SOLINE RODBERG J 2003-2005 D 6 00:35:07 05:51 10.25
42 1248 SYBILLE LEFEVRE J 2003-2005 D 7 00:35:22 05:54 10.18
43 1280 CHARLOTTE BOUARD J 2003-2005 D 8 00:35:28 05:55 10.15
44 1400 JUSTIN HEYNEN SENIOR H 6 00:35:58 06:00 10.01
45 1334 VICTORIA RONVAUX J 2003-2005 D 9 00:36:32 06:05 9.85
46 1292 ROXANE LAMBERT J 2003-2005 D 10 00:36:45 06:08 9.80
47 1333 CAMILLE MAILLARD J 2003-2005 H 18 00:37:09 06:11 9.69
48 1293 CLAIRE BASTIN J 2003-2005 D 11 00:37:11 06:12 9.68
49 1269 MARC BASTIN VETERAN 2 1 00:37:11 06:12 9.68
50 1304 MIRANDA DONSE SENIOR D 1 00:37:17 06:13 9.66
51 1244 LUCIE LALLEMAND J 2003-2005 D 12 00:37:22 06:14 9.63
52 1354 PHILIPPE DEFRESNE VETERAN 1 3 00:37:23 06:14 9.63
53 1418 CAMILLE LAMURY J 2003-2005 D 13 00:37:42 06:17 9.55
54 1251 ROMAIN CARA J 2003-2005 H 19 00:37:43 06:17 9.54
55 1256 NORA DEVLEESCHOUWER J 2003-2005 D 14 00:37:43 06:17 9.54
56 1216 ELODIE BULTOT SENIOR D 2 00:37:51 06:18 9.51
57 1215 FABRICE PIAT SENIOR H 7 00:37:51 06:18 9.51
58 1361 JEROME DEVIENNE SENIOR H 8 00:38:07 06:21 9.44
59 1263 BENJAMIN LAISSE SENIOR H 9 00:38:07 06:21 9.44
60 1295 CLAIRE BERTON J 2003-2005 D 15 00:38:16 06:23 9.41
61 1397 ANNE-SOPHIE BEKA J 2000-2002 D 2 00:38:22 06:24 9.38
62 1358 DAVID PICHON VETERAN 1 4 00:38:22 06:24 9.38
63 1323 PHILIPPE GYSELS VETERAN 1 5 00:38:26 06:24 9.37
64 1336 LAURENT LEMIRE SENIOR H 10 00:38:30 06:25 9.35
65 1332 MAXIME MASSART J 2003-2005 H 20 00:38:31 06:25 9.35
66 1202 LAURA TOUSSAINT J 2003-2005 D 16 00:38:45 06:28 9.29
67 1422 JORDAN LEDUC SENIOR H 11 00:38:45 06:28 9.29
68 1315 CLEMENTINE LUCCA J 2000-2002 D 3 00:38:47 06:28 9.28
69 1417 DENIS GREGOIRE VETERAN 1 6 00:38:48 06:28 9.28
70 1232 ELISA ISTACE J 2000-2002 D 4 00:38:48 06:28 9.28
71 1416 CAMILLE GREGOIRE J 2006-2017 D 2 00:38:49 06:28 9.27
72 1366 NICOLAS MERTES SENIOR H 12 00:38:49 06:28 9.27
73 1404 MONA VANDEWEERD J 2003-2005 D 17 00:38:55 06:29 9.25
74 1383 GAUTIER SCHORLCOPS J 2006-2017 H 2 00:39:00 06:30 9.23
75 1305 CLAIRE DEVLEESCHOWER J 2003-2005 D 18 00:39:01 06:30 9.23
76 1283 ERIC DEVLEESCHOUWER VETERAN 2 2 00:39:01 06:30 9.23
77 1206 THIBAUT NULLENS J 2003-2005 H 21 00:39:39 06:36 9.08
78 1262 CATHY MOTTARD AINEE 1 3 00:39:44 06:37 9.06
79 1399 BERTRAND DEFRENE VETERAN 1 7 00:39:57 06:40 9.01
80 1298 NAOMI CARLOS DE OLIVEIRA J 2000-2002 D 5 00:40:05 06:41 8.98
81 1392 ANNE LIBERTIAUX AINEE 2 1 00:40:12 06:42 8.96
82 1405 FREDERIC DEHARENG VETERAN 1 8 00:40:13 06:42 8.95
83 1287 PAULINE BRASSELET J 2003-2005 D 19 00:40:29 06:45 8.89
84 1407 INES DEHARENG GRANADOS J 2003-2005 D 20 00:40:37 06:46 8.86
85 1321 WILLIAM BOONE J 2003-2005 H 22 00:40:44 06:47 8.84
86 1208 LAURENCE DEJONCKERE SENIOR D 3 00:40:53 06:49 8.81
87 1403 ELAIA POLLAK J 2003-2005 D 21 00:41:01 06:50 8.78
88 1228 JEROME BLETARD SENIOR H 13 00:41:37 06:56 8.65
89 1419 SOPHIE HENE SENIOR D 4 00:41:49 06:58 8.61
90 1372 JOHAN BOSSCHAERT VETERAN 1 9 00:42:23 07:04 8.49
91 1205 VICTOR MOSCATO J 2003-2005 H 23 00:42:27 07:04 8.48
92 1350 ARABELLE RASSE AINEE 1 4 00:42:33 07:05 8.46
93 1364 JONATHAN BLOND VETERAN 1 10 00:42:34 07:06 8.46
94 1240 SUZANNE DERNONCOURT J 2003-2005 D 22 00:42:39 07:06 8.44
95 1382 ISABELLE CANIVET AINEE 1 5 00:42:40 07:07 8.44
96 1395 HELENE HEIJMANS J 2003-2005 D 23 00:43:07 07:11 8.35
97 1255 ELOA DE MARTIN J 2000-2002 D 6 00:43:15 07:12 8.32
98 1253 CAMILLE BERTRAND J 2000-2002 H 7 00:43:15 07:12 8.32
99 1220 MAXIME RAPPE J 2003-2005 H 24 00:43:25 07:14 8.29
100 1222 BABOU VERHAEGEN J 2000-2002 D 7 00:43:28 07:15 8.28
101 1337 CLAIRE SIMILON SENIOR D 5 00:43:33 07:15 8.27
102 1239 LISA DAISNE J 2003-2005 D 24 00:43:38 07:16 8.25
103 1207 AUDREY DEUMER SENIOR D 6 00:43:49 07:18 8.22
104 1356 FIONA RAUCOUX SENIOR D 7 00:43:55 07:19 8.20
105 1373 CATHERINE BOSSCHAERT J 2003-2005 D 25 00:44:07 07:21 8.16
106 1374 CATHERINE LECOCQ AINEE 1 6 00:44:10 07:22 8.15
107 1314 CLAIRE DURY AINEE 1 7 00:44:21 07:23 8.12
108 1286 MICHAEL MAHIN SENIOR H 14 00:44:22 07:24 8.11
109 1238 AUGUSTIN LIMPENS J 2003-2005 H 25 00:44:24 07:24 8.11
110 1362 ERINE DEVOS J 2006-2017 D 3 00:44:24 07:24 8.11
111 1217 GASPARD GUSTIN J 2003-2005 H 26 00:44:25 07:24 8.11
112 1398 ADELINE COLLIGNON J 2003-2005 D 26 00:44:25 07:24 8.11
113 1319 JULIA MASEREEL J 2003-2005 D 27 00:44:37 07:26 8.07
114 1320 ANDRÉ MASEREEL VETERAN 1 11 00:44:37 07:26 8.07
115 1367 SINDI AHMETAJ J 2003-2005 D 28 00:44:59 07:30 8.00
116 1277 CLARISSE BERGHMANS J 2003-2005 D 29 00:45:14 07:32 7.96
117 1265 ABDERRAHMANE BOUCETTA J 2003-2005 H 27 00:45:52 07:39 7.85
118 1345 MATHIAS DEFRESNE J 2003-2005 H 28 00:46:03 07:40 7.82
119 1369 GERALDINE ROSSI SENIOR D 8 00:46:36 07:46 7.73
120 1368 FLORENCE ROSSI AINEE 1 8 00:46:36 07:46 7.73
121 1376 JULIE FERY SENIOR D 9 00:46:59 07:50 7.66
122 1285 FRÉDÉRIC FRAIX VETERAN 1 12 00:47:44 07:57 7.54
123 1311 VALÉRIE DEVAUX SENIOR D 10 00:47:44 07:57 7.54
124 1301 CHRISTINA HUANG J 2003-2005 D 30 00:48:04 08:01 7.49
125 1359 CELIA BROSEMER J 2003-2005 D 31 00:48:15 08:02 7.46
126 1360 KYARA COUVREUR J 2006-2017 D 4 00:48:15 08:02 7.46
127 1414 PAULINE MOMBAENS J 2006-2017 D 5 00:48:27 08:04 7.43
128 1410 SYLVIANE GILLIS AINEE 1 9 00:48:31 08:05 7.42
129 1224 TÉA GRODRIAN J 2003-2005 D 32 00:48:33 08:05 7.42
130 1310 FABIENNE FRANCOIS AINEE 1 10 00:48:33 08:05 7.42
131 1381 ANNIE MUNYENGANGO J 2003-2005 D 33 00:48:37 08:06 7.40
132 1420 DOMINIQUE PONTHIEU SENIOR H 15 00:48:54 08:09 7.36
133 1231 HATICE OZBERK J 2000-2002 D 8 00:49:08 08:11 7.33
134 1302 LAURENCE DEVAUX SENIOR D 11 00:49:13 08:12 7.31
135 1279 MAROT TROONEN J 2003-2005 D 34 00:49:13 08:12 7.31
136 1226 LOUISE GILLAIN SENIOR D 12 00:50:29 08:25 7.13
137 1426 XXX XXX   00:50:35 08:26 7.12
138 1393 BERNADETTE ADANT-JOYE AINEE 2 2 00:51:10 08:32 7.04
139 1348 BÉNÉDICTE BROUWERS AINEE 2 3 00:51:35 08:36 6.98
140 1297 EMA BRUCI J 2003-2005 D 35 00:52:04 08:41 6.91
141 1290 ELZA SARAISHTA J 2003-2005 D 36 00:52:39 08:46 6.84
142 1212 JEHANNE HAVET AINEE 1 11 00:53:37 08:56 6.71
143 1363 ANDRE BROUWERS SENIOR H 16 00:54:33 09:05 6.60
144 1243 STÉPHANIE ROLIN AINEE 1 12 00:59:46 09:58 6.02